Wind_Speed
10 9 8 8 8 8 7 6 5 4 4 4 4 4 5 6 6 6 6 6 7 6 6 6 6 7 6 7 8 6 5 6 5 4 4 4 4 7 9 11 12 13 14 15 15 15 14 13 13 14 13 12 12 13 13 13 11 8 7 7 8 9 8 6 4 4 4 5 5 5 4 3 3 3 3 4 4 7 9 10 10 12 14 16 15
10 9 8 8 8 7 6 5 5 4 3 3 3 4 4 5 5 5 6 6 6 5 5 6 6 7 6 6 8 6 5 5 4 3 3 4 3 4 8 9 10 12 13 14 15 15 15 14 14 15 15 15 15 15 15 16 14 10 9 8 8 9 9 7 6 4 4 4 5 6 5 4 4 5 5 5 5 8 10 11 11 12 14 14 14
9 9 9 8 7 6 5 4 4 3 2 3 3 4 4 5 5 5 5 5 5 5 5 6 5 6 6 5 6 5 4 3 3 3 2 3 2 2 5 7 9 10 11 11 13 14 15 15 15 15 16 16 17 17 16 17 15 12 10 9 8 9 9 8 7 6 5 4 5 6 5 5 6 7 7 7 8 10 12 13 12 14 14 14 14
9 9 8 7 6 5 5 3 3 3 2 2 2 3 3 4 5 4 4 4 5 5 4 6 5 5 5 5 4 4 3 2 2 2 2 3 2 2 3 5 7 8 9 10 10 12 13 14 15 15 15 16 17 17 17 17 16 14 11 9 9 9 9 8 8 8 7 6 6 6 5 6 8 8 8 8 9 11 12 13 14 15 14 14 14
8 8 7 7 6 4 4 3 2 2 2 2 2 2 2 3 4 3 4 3 4 4 5 6 3 2 4 4 4 4 3 2 2 2 1 2 2 3 4 3 4 6 7 9 9 10 11 12 13 14 15 15 16 17 18 18 17 15 12 11 10 10 10 9 9 9 8 8 8 7 7 8 9 9 9 10 11 12 13 14 15 15 14 14 13
8 7 6 5 5 4 3 3 2 1 1 2 1 1 2 3 3 3 3 2 4 4 5 7 2 2 3 3 4 3 3 2 2 2 1 2 3 3 4 4 4 4 6 8 9 9 10 10 11 12 14 14 15 16 17 18 18 17 14 12 11 10 10 10 10 9 8 9 10 9 9 10 10 10 11 11 12 13 14 14 14 14 13 12 12
7 6 4 4 4 3 3 2 1 1 1 2 1 1 1 2 3 3 3 3 3 3 5 7 3 1 1 3 4 3 4 3 1 3 2 2 2 3 5 4 4 4 4 6 8 9 9 9 10 11 12 13 14 14 15 17 17 17 16 13 11 11 11 11 11 10 9 10 10 9 9 10 11 11 12 12 13 14 14 14 13 13 13 12 11
6 5 4 3 3 3 3 2 2 1 1 2 1 1 1 1 2 3 4 3 2 2 5 6 3 4 3 4 4 2 4 3 3 5 3 2 2 3 5 3 1 3 4 5 7 9 11 10 10 10 11 12 12 13 13 15 16 17 17 15 13 11 11 11 11 11 9 9 9 9 9 9 10 12 12 13 13 14 13 13 12 13 12 11 11
6 5 3 2 2 2 2 2 2 1 2 1 1 1 1 1 1 3 3 2 2 2 4 4 5 5 4 5 3 1 4 2 3 7 3 1 2 2 4 3 4 4 4 5 6 7 9 10 10 10 11 11 11 11 12 13 14 16 16 16 14 12 11 11 11 11 10 9 8 8 9 9 10 12 12 13 13 13 13 12 12 12 12 11 10
6 5 3 2 2 2 2 2 2 2 2 1 1 1 1 1 1 2 2 2 2 2 1 1 3 5 4 6 3 0 4 3 1 4 4 3 3 2 3 1 5 5 4 3 4 5 6 8 10 10 11 11 10 10 10 11 12 14 15 15 15 14 12 11 10 10 9 9 8 8 9 9 10 11 12 12 13 13 12 12 11 11 11 10 10
6 5 3 2 2 2 2 2 2 2 2 1 1 1 2 2 1 2 2 1 1 2 1 1 3 2 2 5 4 0 3 2 2 2 3 5 3 1 1 0 5 6 3 2 2 4 5 6 7 7 9 11 10 10 9 10 10 12 13 14 15 14 13 11 10 10 9 9 8 8 8 9 9 10 12 12 12 13 12 12 12 11 11 10 10
6 5 3 2 2 2 2 1 1 2 2 2 2 2 3 2 2 3 3 2 1 1 0 2 4 0 1 1 3 2 2 1 2 2 3 5 2 1 1 2 5 5 2 1 1 3 5 6 5 5 7 10 12 12 9 8 9 10 11 12 13 14 13 12 10 9 9 8 8 8 8 9 9 9 11 12 12 12 12 12 12 11 10 10 10
6 5 4 3 2 2 2 1 1 1 2 3 3 4 3 2 3 3 3 2 1 1 1 1 3 2 2 4 4 3 2 3 3 5 4 4 3 2 1 3 6 4 0 1 2 2 2 4 4 5 6 8 10 12 11 9 8 8 9 10 11 12 12 12 10 9 8 8 8 8 9 9 9 9 10 11 12 12 12 12 12 12 11 10 10
5 4 4 3 3 3 2 2 1 1 2 2 3 3 3 2 2 3 3 2 2 1 2 2 4 3 2 4 4 5 3 4 7 6 5 2 3 4 2 1 4 3 1 2 3 2 1 3 3 5 6 5 6 9 9 8 8 6 7 8 9 10 11 11 11 9 8 8 8 8 9 9 9 9 9 10 12 12 13 13 12 12 12 11 11
5 5 4 4 3 3 3 2 1 1 1 2 2 2 2 1 1 3 4 4 2 1 2 3 4 1 2 2 3 4 3 3 7 5 4 4 1 2 1 1 3 2 1 2 2 3 1 2 2 3 3 4 5 6 5 6 7 4 5 6 8 8 8 10 10 10 8 7 8 8 9 9 9 10 9 9 10 11 13 13 12 12 12 12 11
5 5 4 4 4 3 3 2 1 0 1 1 1 2 2 1 2 2 3 6 3 1 2 3 4 3 1 2 2 2 1 3 7 4 3 5 3 3 4 2 0 2 1 0 3 5 2 2 1 2 2 3 3 4 3 4 7 5 4 4 5 6 6 8 8 9 9 8 7 7 8 9 9 10 10 9 10 10 12 13 12 12 12 12 11
6 5 4 4 4 3 2 2 1 0 1 1 1 1 1 2 2 2 2 4 4 2 2 2 3 3 4 3 1 2 1 3 5 2 4 5 3 4 4 3 3 1 2 4 2 4 3 2 2 2 1 1 2 3 2 3 6 6 3 3 3 4 5 6 7 7 8 8 8 7 7 8 9 10 10 10 10 10 11 12 12 12 11 11 11
6 5 4 4 4 3 2 2 1 1 1 1 0 0 1 2 2 1 3 3 4 4 1 1 2 2 3 2 0 3 3 4 4 1 2 4 6 2 4 2 6 4 3 5 4 1 2 2 4 3 2 3 3 3 3 3 4 4 3 2 2 3 4 4 5 6 6 7 8 7 7 6 7 9 10 10 10 10 11 12 12 13 12 11 11
6 5 5 4 4 3 2 2 2 2 1 1 2 1 1 2 1 2 3 3 3 5 4 1 1 2 3 2 1 2 4 4 4 3 1 3 7 9 2 2 6 2 2 3 0 3 3 2 6 6 4 5 3 2 3 4 3 2 4 3 2 2 4 3 3 4 5 6 7 7 7 6 6 6 8 10 10 10 11 11 12 13 13 13 12
6 5 5 5 4 3 3 3 3 3 2 3 2 1 1 1 1 1 1 2 2 3 6 5 2 1 2 4 3 3 3 3 4 5 3 2 4 11 5 2 4 2 5 7 8 5 3 1 5 7 6 6 3 3 3 4 3 3 4 4 3 2 2 3 3 3 4 5 5 6 7 6 6 6 6 8 9 10 11 11 12 12 13 13 13
6 6 6 5 5 4 3 3 4 4 4 3 2 2 1 1 1 0 0 1 1 1 3 5 5 2 1 3 5 5 4 5 5 7 7 2 0 5 6 2 4 6 7 8 10 9 4 1 1 2 3 3 3 3 3 4 3 2 3 4 5 3 1 2 3 3 3 4 5 5 5 6 6 6 6 6 7 8 10 11 12 12 12 13 13
7 7 7 6 6 5 4 4 5 4 4 3 3 3 3 3 3 2 1 1 1 1 2 2 4 4 2 1 3 4 3 4 4 5 8 6 2 4 6 4 5 6 5 5 5 7 8 5 2 1 1 2 2 4 3 3 3 1 2 4 5 5 3 1 3 4 4 4 5 5 5 5 5 6 7 6 6 6 7 9 11 12 12 12 13
7 8 8 8 7 6 6 5 5 5 4 4 4 4 3 4 3 2 2 2 2 2 3 3 2 3 3 1 3 4 2 4 2 0 4 5 3 5 7 9 8 8 4 2 3 5 6 6 3 3 4 3 3 4 2 2 2 1 3 5 5 5 5 3 1 4 5 5 5 5 5 5 5 5 6 6 7 6 6 7 8 10 11 12 12
7 7 8 8 8 7 6 5 5 5 5 5 4 4 3 3 3 3 3 2 3 3 4 5 4 5 5 3 5 5 4 4 4 3 2 3 5 3 4 5 8 10 8 4 4 5 4 5 5 5 5 4 3 2 2 1 2 2 4 6 5 5 5 5 3 2 5 6 6 6 5 6 6 6 6 6 6 7 7 7 7 8 9 10 11
8 8 8 8 8 7 7 6 5 5 5 4 4 4 3 3 3 3 4 3 3 4 4 5 5 5 6 5 6 6 5 4 4 5 3 2 5 2 2 2 3 7 8 5 6 6 3 3 4 4 5 4 3 2 3 3 4 3 4 5 5 4 5 7 7 4 1 4 6 6 6 6 6 6 6 6 6 7 7 7 8 8 8 8 9
9 8 8 8 8 8 7 6 5 5 5 5 5 5 4 4 4 4 4 3 3 4 5 6 6 6 6 6 7 7 6 5 5 6 6 5 6 4 3 4 4 6 6 4 5 5 3 3 3 4 5 4 3 3 4 4 4 2 3 4 3 4 7 8 9 9 6 1 3 5 7 7 7 7 7 7 7 7 7 8 8 8 9 9 9
9 9 8 8 8 7 7 7 6 6 6 6 6 6 5 5 5 5 5 4 4 5 5 6 6 6 6 6 7 8 7 7 6 6 7 6 7 6 4 4 4 6 6 4 4 4 4 4 2 4 5 4 3 2 3 3 3 2 3 3 2 3 5 6 8 9 8 6 3 2 4 7 8 8 8 8 8 8 8 9 9 9 9 10 10
9 9 9 9 9 8 8 8 7 7 7 6 7 6 6 6 6 5 6 6 5 5 6 7 7 7 7 6 7 8 7 7 7 7 6 6 7 6 6 6 4 4 5 4 4 3 3 4 2 4 5 3 2 1 1 2 1 2 2 2 1 1 2 4 5 6 7 7 5 3 1 3 6 8 9 9 9 9 9 10 10 10 10 10 11
9 9 9 9 9 9 9 8 8 8 7 7 7 7 6 7 7 6 7 6 5 6 7 7 7 7 7 7 7 8 8 7 8 8 5 5 6 6 6 6 4 4 4 4 4 4 4 5 2 3 3 3 2 1 1 1 1 2 2 2 2 2 2 2 3 4 6 6 5 4 2 0 2 4 6 8 10 10 11 11 11 11 12 12 12
10 9 9 9 10 10 9 9 8 8 8 8 8 7 7 8 7 6 7 7 6 7 7 8 8 8 8 8 7 8 8 8 8 8 5 5 7 7 6 5 4 4 4 3 4 5 5 6 4 3 2 2 2 1 1 1 1 2 2 3 2 1 1 2 3 5 6 5 4 3 2 1 1 1 2 4 6 8 10 12 13 13 13 13 13
11 10 10 10 10 10 10 10 10 9 9 9 8 8 9 8 8 8 8 7 7 8 8 9 9 8 8 8 8 8 8 8 8 8 7 7 7 7 7 6 5 5 5 4 4 4 5 6 5 4 2 2 3 1 2 2 3 3 3 3 2 3 2 3 5 5 5 5 5 4 4 4 4 3 3 4 4 5 7 9 12 14 14 15 15
12 11 11 11 11 11 11 11 11 11 10 10 9 9 9 9 9 9 8 7 7 8 9 10 9 9 8 9 9 8 8 8 8 8 8 8 8 8 8 7 6 6 5 5 5 4 5 6 5 4 2 2 2 1 1 2 3 3 3 3 1 3 1 3 6 7 6 6 6 6 6 7 7 7 7 7 6 7 7 8 9 11 13 14 15
13 13 13 12 12 12 12 12 11 11 10 9 9 9 9 9 9 10 9 8 9 9 9 9 10 9 9 9 9 9 9 9 9 9 9 8 8 8 8 7 7 7 6 6 6 5 5 5 5 5 2 1 1 0 0 1 2 2 1 1 1 3 2 2 4 7 9 7 6 6 6 6 6 6 6 6 6 6 6 6 7 7 8 10 12
14 14 14 14 14 13 13 12 12 11 10 10 11 11 10 10 10 11 11 10 11 10 10 10 10 10 10 10 10 10 10 10 10 10 10 9 9 8 7 7 7 7 6 6 6 6 5 4 5 4 2 2 2 1 1 1 1 1 1 2 3 3 4 4 2 4 9 7 6 6 6 5 6 5 5 5 5 5 5 4 4 5 6 7 9
15 15 15 15 15 15 14 13 13 12 12 12 12 12 12 11 11 11 11 10 10 10 10 10 10 10 10 10 11 11 11 10 10 11 10 10 9 9 8 7 7 7 6 6 6 7 6 4 5 5 3 3 3 2 2 3 2 2 3 4 5 4 5 5 2 3 7 7 5 6 5 5 5 5 5 5 5 5 4 4 4 4 5 6 7
16 15 15 15 15 15 15 14 14 14 13 13 13 13 13 12 11 12 11 11 11 10 11 10 10 10 10 11 11 11 11 11 10 10 11 10 10 9 9 8 7 7 6 6 7 7 7 6 6 5 4 4 4 3 4 4 4 4 4 5 6 5 5 5 0 1 6 7 5 5 4 4 4 4 4 4 4 4 3 3 4 4 4 5 5
16 15 15 15 14 14 15 15 14 14 14 14 14 13 13 12 12 12 11 11 11 11 11 11 10 10 10 11 11 11 11 11 11 10 10 10 10 9 9 8 7 7 7 7 7 7 7 7 6 5 5 6 5 4 4 5 5 5 4 4 5 4 5 5 1 0 3 4 5 6 5 4 4 4 4 4 3 3 3 3 3 4 4 4 4
16 15 14 14 14 14 14 14 14 14 14 14 13 13 13 12 12 12 11 11 11 11 12 11 11 11 11 12 11 11 11 12 12 10 9 9 9 9 9 9 8 8 7 8 8 8 8 9 8 7 7 7 6 5 4 4 5 5 5 4 3 2 3 4 3 1 0 1 1 3 4 4 5 5 4 4 4 4 3 3 3 3 3 4 5
15 15 15 14 14 14 14 14 14 14 13 13 12 12 12 12 12 12 12 12 12 12 12 12 11 11 12 12 12 11 11 12 12 11 9 9 9 9 9 8 9 9 9 10 8 7 9 10 9 9 8 7 7 6 5 4 4 5 5 5 3 2 2 2 3 2 1 1 2 2 1 2 4 6 5 4 4 4 4 4 4 4 4 5 5
15 15 15 15 14 14 14 14 14 14 14 14 13 13 12 12 12 12 12 12 12 11 11 11 11 12 13 14 13 12 12 13 13 11 10 8 8 9 8 8 9 8 9 10 6 5 9 11 11 9 6 6 8 6 5 5 5 5 4 4 4 3 3 2 2 3 3 3 3 2 1 1 2 4 6 6 5 6 5 5 5 5 6 7 7
15 15 15 15 14 14 14 14 15 15 15 15 14 14 13 13 13 12 12 13 12 11 11 11 11 12 13 14 14 13 14 14 13 12 11 10 10 10 9 8 7 6 8 9 5 2 7 10 11 11 9 8 10 8 6 6 5 4 4 4 4 3 3 3 2 2 3 4 3 2 1 1 1 2 4 5 6 6 6 6 6 7 7 8 8
14 14 14 14 14 14 14 14 15 15 15 15 14 15 14 13 12 12 11 12 12 12 12 12 12 12 13 14 14 14 16 15 14 14 13 12 12 13 12 10 7 5 8 9 6 5 7 10 11 9 7 8 9 9 8 7 5 4 5 4 4 3 3 3 3 2 3 4 3 2 2 2 0 1 2 4 5 5 6 6 7 7 7 8 8
15 14 14 15 15 15 15 15 15 15 16 15 14 15 16 15 13 12 11 12 13 13 12 12 12 13 14 15 14 16 17 15 14 14 12 10 12 13 13 12 11 10 11 11 11 12 13 13 14 13 12 11 9 8 9 8 6 5 5 5 4 4 4 4 3 3 2 2 3 3 2 2 1 1 2 4 4 4 5 6 7 8 7 7 7
15 15 15 15 15 15 15 15 16 16 15 14 14 15 15 15 14 13 12 11 12 13 12 13 13 13 14 15 15 18 18 13 11 10 9 9 11 11 10 12 13 13 14 16 17 16 16 17 17 17 15 11 9 9 10 8 7 6 5 5 5 5 5 5 5 3 3 2 3 4 3 2 2 3 3 4 3 3 5 6 7 8 9 9 8
13 14 15 15 15 16 15 15 16 15 13 12 13 15 15 15 15 14 13 12 12 12 12 13 13 12 14 16 16 18 17 10 8 8 8 9 10 10 10 11 14 14 14 17 19 18 18 18 19 19 18 14 10 9 9 8 7 7 7 7 6 6 5 5 5 3 2 3 4 5 4 3 4 4 3 4 4 3 3 5 7 8 9 9 8
11 12 13 14 14 15 15 15 14 12 11 13 15 15 15 15 15 15 14 13 13 14 14 15 16 15 16 17 16 16 15 12 10 9 8 8 9 8 8 10 14 15 14 15 18 19 20 21 21 21 20 17 14 10 9 10 8 7 8 7 6 6 5 5 5 4 4 4 4 4 4 4 4 4 4 4 4 3 3 4 5 6 7 8 8
10 9 11 12 13 14 14 15 14 11 11 14 16 15 15 14 14 15 14 13 14 14 15 17 18 17 17 17 16 16 15 14 13 10 9 10 9 8 8 10 13 15 14 15 17 18 20 21 23 22 20 18 15 11 10 10 9 8 7 6 6 6 5 5 5 5 5 5 4 4 5 5 4 4 5 6 5 4 3 3 4 5 6 6 6
9 8 9 11 12 12 11 12 12 10 10 13 14 13 13 13 13 12 12 12 13 14 15 17 17 17 17 17 16 14 12 11 11 12 12 11 9 9 10 11 12 13 13 15 17 17 18 19 21 21 18 17 16 14 11 11 10 9 7 7 7 7 6 7 8 7 6 6 5 4 5 5 4 3 5 5 5 5 3 2 2 3 4 5 5
7 7 7 8 9 7 6 6 5 2 4 8 10 10 10 10 9 9 8 10 11 12 13 14 14 14 14 13 12 10 9 9 10 12 13 11 9 12 14 13 12 13 13 15 17 18 18 19 20 20 19 19 18 16 15 13 13 11 9 8 9 8 8 8 8 8 7 6 5 3 5 6 4 4 5 5 4 3 3 3 3 1 1 2 2
6 6 7 7 7 4 4 6 4 4 6 7 6 6 7 7 6 5 6 8 9 9 10 9 9 9 9 9 10 9 9 9 9 10 13 12 9 12 15 15 15 15 13 13 16 18 19 19 20 19 19 19 18 16 16 14 13 13 12 10 9 8 9 9 8 9 8 7 6 3 5 5 5 4 5 5 4 4 4 4 4 2 1 1 0
5 4 5 6 6 6 4 6 7 3 4 7 5 3 4 4 4 4 5 8 8 8 8 8 7 7 7 7 9 9 9 10 10 11 13 13 10 11 13 15 16 17 16 14 13 13 12 13 15 16 16 16 15 13 13 13 12 12 12 13 11 8 8 9 9 8 5 5 6 5 3 5 6 5 5 6 6 5 5 6 5 4 4 3 3
Wind_Direction
135 135 136 138 139 138 130 118 109 103 97 95 90 82 81 81 76 71 67 68 73 65 66 77 77 76 79 88 91 82 80 81 69 64 61 58 40 27 33 40 44 49 54 58 61 62 62 61 57 53 49 41 37 36 36 35 35 41 44 29 20 31 44 51 54 81 105 112 115 118 122 131 149 151 161 188 186 172 172 167 169 177 172 170 171
138 137 138 140 140 136 124 118 112 102 99 96 88 78 78 79 71 63 60 66 79 70 65 77 78 80 77 79 89 89 85 84 77 74 69 67 56 25 25 35 41 43 49 54 57 60 61 62 58 53 50 44 41 38 38 39 38 40 46 40 36 42 47 61 68 78 101 115 111 103 99 102 115 129 131 144 154 148 149 153 154 152 157 167 167
139 140 142 142 139 133 123 122 116 105 92 87 80 72 71 73 64 52 51 62 77 72 77 85 84 87 86 80 84 85 81 88 97 98 90 72 62 36 18 24 36 39 44 48 51 55 57 58 57 54 50 45 42 39 38 42 41 40 45 47 48 50 52 64 72 79 98 108 113 102 87 97 111 111 109 120 132 135 139 141 140 139 146 156 158
139 141 143 140 138 136 129 126 118 109 80 66 64 65 73 76 66 52 45 54 74 77 89 86 75 83 89 86 87 86 75 74 97 93 90 72 48 54 36 14 20 30 36 39 44 48 50 52 53 52 50 46 42 39 39 41 44 42 42 52 60 58 60 71 75 79 88 93 109 109 92 104 115 107 106 118 124 127 133 134 135 138 145 151 153
140 139 143 143 139 137 132 126 109 100 70 40 39 64 70 72 68 57 46 49 76 81 93 91 64 56 88 95 94 100 105 104 102 82 69 80 70 59 53 25 3 12 17 22 33 41 43 45 46 48 47 46 42 39 39 40 43 44 41 51 62 61 62 74 83 84 85 89 105 111 105 110 118 114 112 119 123 127 131 133 137 141 145 148 152
143 141 145 149 144 136 127 117 97 82 64 25 13 73 59 59 57 51 46 50 75 73 88 103 100 13 55 83 86 91 108 100 102 107 74 65 82 81 61 35 9 12 4 1 13 26 34 36 37 39 41 42 41 37 38 39 41 45 44 49 59 63 64 74 89 93 88 90 99 103 104 110 117 119 117 120 127 131 133 134 138 141 143 147 152
143 144 147 154 151 139 122 103 79 59 50 17 355 23 35 54 46 36 35 32 69 89 87 97 118 113 71 85 85 91 103 105 145 111 89 70 77 92 81 43 6 24 20 2 0 8 18 25 26 28 34 36 38 36 35 38 40 43 45 47 52 61 71 78 89 97 97 95 96 97 99 109 118 121 121 124 129 133 136 138 139 141 144 149 151
143 147 150 158 150 131 119 87 60 42 30 13 347 342 7 48 38 33 38 16 20 96 98 103 144 168 163 116 95 98 108 137 147 93 67 66 77 108 114 120 68 31 30 24 5 0 2 6 12 15 24 30 34 34 32 35 39 42 45 48 49 54 72 85 91 95 98 97 98 102 104 111 121 126 127 130 133 135 138 141 143 144 145 149 151
147 150 154 160 142 117 107 80 58 39 25 7 337 329 340 27 34 38 42 358 341 43 98 138 172 176 164 120 110 157 106 93 87 90 98 61 44 91 104 124 115 51 23 28 7 360 356 358 7 7 15 24 30 33 32 33 36 41 44 49 51 49 63 82 92 94 96 97 100 110 114 117 124 130 135 137 138 139 141 143 144 143 144 147 150
151 156 159 147 131 102 82 72 58 36 29 11 16 8 344 3 20 43 33 344 349 11 40 206 193 177 165 126 117 216 101 92 97 113 131 89 46 52 52 89 115 64 22 39 5 353 353 358 7 3 3 10 21 30 32 34 33 39 44 47 52 50 55 70 86 92 97 101 104 112 119 121 126 135 142 144 144 144 145 146 144 142 143 145 146
154 159 160 147 139 116 89 80 59 36 27 32 58 40 11 8 350 11 2 324 339 340 7 281 248 199 157 124 118 127 96 113 210 166 134 103 75 345 334 322 101 68 35 93 28 348 353 3 10 3 358 359 11 22 26 35 32 36 43 47 52 51 52 60 75 89 98 104 106 114 123 127 129 139 148 150 150 150 151 150 146 145 145 146 145
157 159 156 154 152 133 125 102 60 35 37 48 49 39 28 10 344 346 328 287 216 249 106 253 255 210 4 155 147 184 135 119 275 261 186 141 124 267 310 7 74 70 29 77 69 358 357 11 14 6 6 359 3 10 14 31 31 33 41 46 52 53 54 56 64 80 97 106 110 118 128 135 135 141 154 157 157 155 156 155 152 151 150 149 147
155 157 159 159 162 153 148 132 74 39 42 41 33 33 28 7 341 323 305 300 271 235 79 287 250 187 242 231 185 187 174 172 214 251 236 175 155 148 74 29 61 71 344 346 8 345 347 24 22 3 9 1 359 2 3 17 22 27 38 46 53 54 56 59 61 70 89 103 111 122 131 141 143 144 155 163 166 163 163 161 158 158 157 154 152
156 160 167 169 173 168 159 152 93 40 35 31 30 36 32 27 349 314 301 297 295 356 31 278 243 201 227 249 197 173 178 211 213 229 253 233 167 152 146 112 106 84 338 4 355 325 340 34 27 7 7 356 2 2 356 360 359 14 38 46 57 58 59 63 65 69 79 97 110 122 131 142 150 149 152 163 171 172 170 169 167 167 165 163 160
167 170 178 176 173 167 161 159 116 33 15 21 28 47 44 43 15 352 333 296 257 78 8 315 292 256 178 250 235 174 153 253 249 241 262 283 293 111 83 223 158 144 3 29 309 263 195 64 7 13 8 341 5 12 357 350 340 358 48 48 59 65 64 68 70 75 77 88 109 121 131 140 151 156 156 160 170 176 176 175 175 177 176 174 171
179 179 185 177 172 167 162 159 136 15 356 10 11 58 68 62 49 39 348 304 284 100 24 339 332 335 248 229 249 223 171 255 256 258 276 276 309 52 49 344 70 76 19 239 268 270 207 124 329 342 17 344 6 18 360 355 347 355 41 45 60 70 72 76 76 80 83 84 98 116 130 139 147 158 162 162 166 174 179 179 179 182 184 184 183
186 187 187 177 177 170 168 170 156 212 291 296 340 57 73 83 68 50 24 332 321 344 21 18 2 354 315 303 271 246 288 288 267 299 309 302 353 45 58 329 274 187 233 209 217 309 327 44 333 278 146 22 343 1 355 357 3 1 4 24 60 78 77 85 84 85 90 89 91 102 120 136 144 152 161 165 168 170 177 182 183 184 187 189 191
190 190 188 183 185 175 178 189 178 209 249 274 281 134 163 104 83 48 44 15 338 320 317 87 19 344 299 296 195 253 295 307 293 309 304 348 359 305 150 207 258 228 214 203 169 115 355 354 312 273 120 74 335 356 23 356 3 350 322 350 51 90 83 89 97 95 97 97 97 98 105 124 139 148 156 163 171 173 175 180 183 186 189 191 195
192 191 192 190 190 183 193 207 204 214 208 221 234 220 177 111 71 50 40 16 4 327 315 12 23 344 327 314 272 291 316 319 313 321 336 39 338 297 201 171 265 269 4 321 84 98 87 344 322 329 38 58 355 8 28 341 346 335 316 348 43 89 94 93 104 110 109 106 104 105 106 113 127 142 155 161 170 175 178 182 183 187 190 192 195
197 197 197 197 198 192 200 211 215 219 206 209 217 226 185 123 47 48 44 356 24 345 327 329 313 68 15 323 319 328 332 324 323 333 342 70 325 305 310 307 290 355 15 353 352 13 85 70 336 339 14 38 1 16 23 339 4 23 341 2 35 52 105 113 118 127 129 125 118 115 114 115 121 132 150 164 173 178 180 185 187 188 191 193 196
205 207 206 205 205 203 206 214 218 218 214 214 201 202 218 197 241 242 164 321 16 347 330 322 316 352 52 329 325 327 326 326 350 355 332 333 125 282 276 290 347 4 14 11 355 347 347 23 38 321 356 23 357 17 25 351 8 35 5 11 22 27 81 138 152 151 149 150 141 135 131 126 127 129 138 157 173 180 182 185 189 190 192 195 197
208 210 213 214 213 213 215 216 215 218 217 215 209 207 211 211 218 230 256 271 248 257 281 296 321 332 335 351 305 304 315 314 356 11 325 316 346 293 297 5 13 344 7 28 344 329 325 333 89 136 2 41 22 13 15 8 9 21 31 21 20 21 22 122 173 173 169 176 165 156 154 147 145 141 140 147 158 174 181 185 190 191 195 198 200
213 211 214 216 217 220 222 222 216 215 218 217 222 225 216 211 209 214 242 259 247 245 259 259 265 284 280 263 266 268 274 288 294 153 294 310 330 327 344 8 354 319 337 29 294 295 310 325 15 34 27 46 34 13 6 26 21 16 40 25 21 21 11 17 180 189 179 187 188 178 170 165 167 163 157 156 157 165 175 182 191 194 198 202 204
219 215 215 213 214 218 222 225 222 217 223 223 225 238 242 227 216 224 228 232 252 254 256 258 253 261 265 259 270 278 282 296 305 277 293 329 313 343 25 4 341 317 318 341 303 296 318 336 355 10 25 33 22 11 345 26 28 19 35 15 6 23 19 25 32 206 191 192 199 200 196 184 183 185 181 178 173 173 176 180 188 192 200 205 209
220 218 218 213 210 214 217 219 222 223 230 234 233 240 248 245 234 238 235 225 245 254 255 262 264 270 278 278 277 282 285 289 299 294 298 296 286 321 47 297 293 288 298 336 329 314 327 340 353 6 15 16 24 19 336 7 26 13 39 17 3 46 53 46 49 44 176 202 205 206 211 208 202 203 200 199 197 194 192 190 192 194 197 203 208
218 219 219 217 212 212 212 215 221 223 227 234 236 236 240 248 247 246 243 233 245 254 255 260 263 265 276 286 286 287 293 293 291 292 295 294 297 326 346 303 295 286 295 341 327 318 342 346 1 17 12 1 360 4 345 1 20 14 62 47 23 67 66 55 57 53 51 59 224 216 216 218 217 218 216 215 214 212 211 208 205 205 204 205 208
216 217 217 217 217 214 213 217 219 220 226 230 234 235 234 242 249 252 254 245 245 256 258 260 261 263 267 280 287 287 290 292 289 293 302 309 315 328 328 313 318 315 317 333 325 332 346 337 8 26 15 357 337 352 350 353 18 33 62 70 63 69 56 50 52 48 47 46 29 249 230 224 222 226 225 225 226 224 223 223 220 219 216 215 214
214 216 216 217 218 219 221 222 219 220 226 227 232 234 231 238 245 246 252 252 248 254 260 262 260 261 263 265 273 278 281 290 293 297 306 315 316 318 314 311 322 322 318 331 335 333 331 329 17 33 7 346 326 342 340 330 18 20 17 71 106 84 25 28 37 35 34 36 34 29 298 236 227 230 231 231 232 232 231 231 230 229 227 227 225
214 214 214 215 215 218 223 224 221 222 225 225 230 232 228 238 243 240 249 255 255 257 260 264 264 262 262 259 261 268 273 279 282 283 290 302 299 295 297 303 314 313 313 332 326 316 327 331 9 62 19 335 314 318 347 347 21 11 12 76 121 215 257 345 3 10 15 19 20 19 14 299 229 228 233 236 235 236 237 235 235 235 234 233 233
214 215 214 213 213 215 220 223 223 225 228 227 227 226 226 235 240 241 247 251 255 260 260 261 264 263 264 264 263 266 268 270 271 273 274 274 279 282 288 291 285 285 296 311 310 314 322 321 336 36 30 341 314 312 69 52 92 75 56 87 114 218 278 342 350 355 356 356 356 345 324 296 258 236 240 245 243 242 240 238 237 237 238 238 237
212 213 216 216 215 214 216 220 223 224 226 228 228 226 227 232 238 242 240 238 244 254 256 257 259 257 258 263 266 266 267 269 270 269 265 265 272 275 275 276 268 266 276 282 291 306 308 311 326 341 4 11 347 22 83 95 133 107 82 108 97 46 21 351 347 347 339 330 324 311 295 284 281 286 293 291 281 267 254 246 240 236 237 238 238
212 212 216 219 218 217 218 220 222 224 224 226 227 225 226 230 235 244 243 234 239 248 251 254 255 255 256 257 261 264 265 268 267 265 261 259 264 269 268 265 258 253 254 262 273 282 291 304 313 312 336 29 4 39 99 122 132 115 108 128 51 6 357 327 336 340 338 327 315 308 300 294 292 293 295 294 292 287 275 262 250 242 239 238 238
215 214 215 218 219 219 222 223 223 224 222 224 227 225 225 227 231 241 245 240 244 248 250 251 253 256 257 256 258 259 259 261 262 263 262 259 257 260 262 258 255 253 246 253 269 276 283 298 297 298 323 331 272 86 212 177 133 128 146 158 291 307 302 308 321 331 340 340 333 333 330 324 320 313 309 304 300 300 294 280 267 258 251 245 242
216 216 216 216 217 218 221 224 224 224 222 222 228 229 228 229 233 239 241 238 240 244 245 247 250 252 253 253 255 255 254 255 258 261 264 265 265 264 263 261 258 255 244 245 264 273 270 269 267 269 274 263 258 181 228 240 170 253 281 292 293 301 320 328 317 329 341 348 355 1 6 7 4 357 352 346 336 333 329 313 289 272 267 262 256
217 218 218 216 214 214 217 221 222 224 224 223 227 230 230 231 235 243 244 241 240 241 244 245 246 249 250 251 253 255 257 258 259 263 266 267 269 270 272 271 264 258 246 238 248 264 270 263 258 261 252 247 252 221 230 247 242 258 281 297 305 314 322 326 349 359 353 359 12 18 26 27 23 22 19 16 10 360 350 337 317 293 283 277 272
221 219 219 219 215 212 215 218 218 221 222 222 224 225 227 229 234 241 245 245 245 247 249 249 249 248 248 250 252 254 258 262 262 263 265 266 265 266 268 268 267 263 254 240 237 250 264 256 244 254 258 253 250 237 245 253 247 261 285 296 304 314 314 315 359 39 1 13 28 21 19 26 26 28 25 20 15 5 349 335 317 300 292 287 282
223 220 219 220 219 216 217 220 219 220 220 220 222 223 224 226 230 236 240 243 247 251 253 253 253 251 250 251 254 254 254 255 256 258 262 263 260 260 262 261 261 260 255 250 245 244 255 258 245 237 239 244 244 238 253 268 263 260 270 283 297 311 309 306 281 127 356 24 38 17 10 14 15 19 19 10 2 354 350 344 328 316 312 310 310
222 222 219 219 220 221 224 225 224 222 221 222 221 223 226 227 228 232 236 239 244 248 251 252 252 251 251 251 252 253 254 254 254 256 260 264 263 261 262 260 258 258 254 250 247 241 245 251 246 236 232 234 234 227 233 258 273 273 270 266 276 298 306 306 305 280 172 138 89 32 27 23 16 17 18 15 17 13 7 9 4 351 344 340 337
221 222 222 220 221 224 225 228 228 225 223 224 222 222 227 232 232 232 235 237 240 243 244 248 253 255 257 258 255 254 255 257 261 259 255 259 263 260 257 255 253 253 254 252 251 252 258 260 255 246 237 231 234 230 219 227 249 262 271 270 262 264 273 297 311 307 282 214 206 205 254 352 17 24 21 22 33 32 22 20 21 15 5 356 346
217 220 222 222 222 225 226 227 228 226 225 225 224 223 224 230 233 232 235 237 237 239 238 242 252 258 261 264 264 262 255 254 259 262 257 259 271 273 269 262 257 257 263 266 267 264 270 283 293 295 287 259 251 244 216 216 231 232 248 264 253 243 246 249 290 307 305 276 233 223 247 222 71 45 38 36 36 32 24 17 15 11 5 356 348
216 217 222 223 222 223 224 224 226 227 228 227 226 222 220 226 230 228 232 237 237 239 242 246 252 257 260 263 263 260 254 249 250 257 262 263 264 270 275 273 271 273 275 283 299 276 259 272 287 308 325 306 285 278 244 222 232 232 232 248 249 250 263 258 247 281 301 291 269 263 271 212 172 68 54 52 42 31 21 15 14 9 2 355 348
217 218 220 223 224 223 222 223 224 226 229 229 225 220 217 221 225 222 226 233 235 237 242 248 249 250 253 256 258 259 256 252 252 258 265 265 254 252 260 265 266 257 258 270 279 261 251 254 253 260 274 268 269 277 266 242 230 226 221 228 243 259 274 265 239 235 282 299 289 276 295 299 265 105 76 64 52 37 20 15 15 9 1 354 346
215 218 220 221 223 223 222 224 225 227 231 229 223 221 222 224 222 222 227 231 230 233 238 243 247 250 253 252 253 257 254 246 248 254 258 260 255 253 256 260 258 250 247 251 247 237 236 238 236 236 239 240 242 252 258 251 237 224 216 218 233 251 264 264 252 230 237 278 272 253 269 284 216 159 96 75 61 35 23 19 15 10 3 355 347
211 213 219 220 222 224 224 226 227 228 231 230 225 225 229 230 226 224 230 232 229 230 234 238 242 249 256 254 254 260 259 245 240 252 257 257 260 261 258 258 258 253 249 248 244 239 237 236 234 234 233 234 238 239 240 244 240 228 219 218 223 232 248 266 273 254 207 212 248 248 243 224 194 180 130 95 70 35 30 25 16 12 7 359 353
212 212 219 222 223 223 225 230 231 230 235 238 234 231 228 227 225 225 231 233 230 230 232 237 241 241 247 252 254 264 271 263 240 248 259 259 259 256 249 254 260 258 252 249 247 246 245 239 236 237 235 235 240 240 236 234 229 226 227 222 218 222 236 254 267 259 201 203 242 253 246 223 199 186 149 107 91 66 46 36 22 14 9 3 356
217 218 224 226 227 227 228 232 232 233 240 237 230 231 231 228 227 228 234 236 236 235 235 240 244 241 241 247 248 255 266 265 250 243 248 258 266 259 243 248 261 262 256 249 244 243 243 238 236 240 242 242 242 242 238 232 224 227 234 231 227 232 238 242 243 233 222 224 239 255 252 231 204 180 155 128 109 82 52 44 32 18 11 6 359
234 235 238 236 233 232 232 234 233 231 228 222 221 228 236 239 237 234 236 238 238 237 237 243 250 249 249 250 246 244 250 256 253 247 244 255 268 269 259 259 264 264 258 250 241 236 238 237 237 240 243 242 242 241 235 230 226 230 239 246 251 250 247 240 226 219 219 214 222 250 249 230 215 187 166 151 127 98 70 53 40 25 14 9 5
234 232 244 251 250 246 242 239 235 226 218 219 225 235 239 241 242 241 239 240 241 239 240 248 255 254 250 248 243 240 242 248 251 251 251 255 256 253 253 254 255 252 248 248 246 239 238 238 238 239 238 236 239 238 229 223 223 227 239 250 250 244 238 231 222 221 216 193 192 239 250 236 226 201 190 183 153 128 112 89 61 34 17 7 7
213 211 223 244 261 281 309 301 282 300 273 243 233 235 239 238 238 242 244 243 244 245 247 251 251 245 243 245 249 254 259 261 261 260 261 262 252 246 246 244 246 247 241 244 250 248 245 242 240 239 236 236 241 241 232 227 224 226 236 248 244 234 229 227 227 229 217 180 169 228 262 252 234 204 206 209 186 170 165 145 129 89 37 12 1
209 217 214 219 229 244 318 312 306 2 336 293 256 233 244 245 235 241 257 257 254 256 258 256 250 246 253 262 264 268 272 274 268 259 260 263 255 251 252 246 244 248 243 241 249 252 248 243 241 239 237 238 241 237 231 229 226 225 232 244 252 247 235 233 237 232 208 166 160 216 262 262 251 224 204 199 205 225 221 187 164 146 119 134 173
183 189 200 215 226 215 230 267 258 240 285 296 296 279 269 269 257 251 264 271 270 271 272 271 266 266 272 275 273 274 275 274 268 261 265 267 257 251 253 246 240 244 248 249 252 256 254 248 246 244 240 239 238 232 228 227 227 231 239 247 256 259 245 239 243 240 214 154 168 201 246 269 264 246 212 207 220 226 215 206 194 171 161 158 155
Height
858 859 860 860 861 861 861 862 862 862 862 862 862 862 862 861 861 860 860 859 858 858 857 856 856 856 856 856 857 858 857 857 856 855 854 853 852 850 849 849 849 850 850 850 850 850 849 848 847 846 846 845 844 843 843 841 840 839 837 836 835 834 833 832 832 831 831 832 832 833 833 833 833 833 833 833 834 835 837 838 840 842 844 846 848
858 859 860 861 861 862 862 862 862 862 862 862 862 862 862 862 862 861 860 859 859 858 858 857 856 856 856 856 857 857 857 857 857 856 855 854 853 852 851 850 849 849 850 850 850 850 849 849 848 847 846 845 844 843 842 841 840 839 838 837 835 834 833 833 832 832 832 832 832 832 833 833 833 833 834 834 834 836 838 839 841 842 844 846 848
859 860 860 861 861 862 862 862 862 862 862 862 862 862 862 862 862 862 861 860 859 859 858 857 857 856 856 856 856 857 857 857 856 855 855 855 854 854 853 851 850 850 850 850 850 850 850 849 848 848 847 845 844 843 842 842 841 839 838 837 836 835 834 833 833 832 832 832 832 833 833 833 833 834 834 834 835 837 838 840 842 843 845 847 848
859 860 861 861 862 862 862 862 862 862 863 862 862 863 862 863 863 862 862 860 859 859 858 858 857 856 856 856 856 856 856 856 855 855 855 855 855 855 855 853 852 851 851 850 850 850 850 850 849 848 847 846 845 844 843 842 841 840 839 838 837 836 835 834 833 833 832 832 833 833 834 834 834 834 835 835 836 838 839 841 843 844 846 848 849
859 860 861 862 862 862 862 862 863 863 863 863 862 863 863 863 863 862 862 860 859 858 858 858 858 857 856 856 856 856 856 856 855 855 855 855 856 856 856 856 854 852 852 851 851 850 850 850 850 849 848 847 846 845 844 842 842 840 839 838 837 837 836 835 834 834 833 833 833 834 834 834 835 835 836 836 837 839 841 842 844 846 847 849 850
860 861 861 862 862 862 863 863 863 863 863 863 863 863 863 863 863 862 861 860 859 858 858 859 859 857 857 857 856 856 856 856 855 855 855 855 856 856 857 857 856 855 854 853 852 851 851 851 850 850 849 848 847 846 844 843 842 841 840 838 838 837 836 835 835 835 834 834 834 835 835 835 836 836 837 838 839 840 842 843 845 846 848 849 850
860 861 862 862 862 862 863 863 863 863 863 863 863 863 863 863 863 862 861 860 859 858 858 860 859 858 858 858 858 857 857 857 856 855 856 856 856 857 858 857 856 857 856 855 854 852 852 851 851 850 850 849 848 846 845 844 843 842 841 839 838 838 837 836 836 836 835 835 835 836 836 837 837 837 838 839 840 841 842 844 845 847 848 849 850
860 861 862 862 862 862 862 863 863 863 863 863 863 863 863 863 863 862 862 861 859 857 858 860 860 858 858 858 858 858 858 857 856 856 856 856 856 857 859 858 857 857 857 856 856 854 853 852 852 851 850 849 848 847 846 845 844 842 841 840 839 838 837 837 837 836 836 836 836 837 837 838 838 839 839 840 841 842 843 845 846 847 848 849 851
861 861 862 862 862 862 862 863 863 863 863 863 863 862 862 863 863 862 862 861 859 857 857 858 858 857 857 857 858 858 858 857 856 857 858 856 856 856 858 858 858 857 856 857 857 855 854 852 852 851 850 850 849 848 847 846 845 843 842 841 840 839 838 838 837 837 837 837 838 838 839 839 839 840 841 842 842 843 844 845 846 847 849 850 851
861 862 862 862 862 862 863 863 863 863 863 863 863 863 862 862 862 862 862 861 859 858 857 856 855 854 854 856 858 857 858 858 856 857 858 857 856 856 857 857 857 858 858 859 858 856 855 853 852 851 850 850 849 849 847 846 845 844 843 842 841 840 839 838 838 838 838 838 839 839 840 840 840 841 842 843 843 844 845 846 847 848 849 850 851
862 862 862 862 862 863 863 863 863 863 863 863 863 863 862 863 862 862 862 861 860 858 857 856 854 853 853 855 858 858 858 858 857 857 857 856 856 856 856 855 856 858 859 859 858 855 855 855 853 852 852 850 850 849 848 847 846 845 844 843 842 841 840 839 839 839 839 839 840 840 840 841 841 842 842 843 844 845 846 846 847 848 849 850 851
862 862 862 862 863 863 863 863 864 863 863 863 863 863 863 863 862 862 861 860 859 858 857 856 854 853 854 855 857 858 859 858 857 856 855 854 855 855 854 855 857 859 859 859 858 855 856 856 854 853 854 852 850 850 849 848 847 846 845 844 843 842 841 840 840 840 840 840 840 841 841 841 842 843 843 844 845 846 847 847 848 849 850 851 852
862 862 862 863 863 863 863 864 864 863 863 863 863 863 863 863 862 862 861 859 858 856 856 857 855 855 856 855 855 857 858 857 855 854 853 852 852 854 853 855 859 860 858 858 858 856 857 857 854 854 855 853 851 851 849 848 847 847 846 845 844 843 842 842 841 840 840 841 841 841 842 842 843 843 844 845 845 846 847 848 849 850 851 851 852
862 862 862 863 863 863 864 864 864 864 864 863 863 863 863 863 863 862 860 859 857 856 857 856 854 854 854 854 852 854 855 854 853 853 851 849 850 852 852 854 857 858 857 857 858 857 857 857 854 853 853 852 852 852 850 849 848 847 846 845 845 844 843 843 842 841 841 841 841 842 842 843 843 844 844 845 846 847 847 849 849 850 851 852 853
862 862 863 863 863 864 864 864 864 864 863 863 863 863 863 863 863 862 860 859 857 856 857 856 853 852 853 854 852 852 855 854 851 850 849 848 848 850 853 854 855 855 856 857 858 858 856 856 854 852 852 852 852 852 851 850 849 848 847 846 845 845 844 843 843 842 842 842 842 842 842 843 844 844 845 845 846 847 847 849 849 850 851 852 853
862 862 863 863 863 863 864 864 864 864 864 864 863 863 863 863 863 863 862 860 857 856 857 856 854 853 853 853 850 852 858 856 850 847 848 847 847 849 852 854 854 853 853 854 856 856 854 854 853 852 852 852 851 851 850 850 849 848 847 846 845 845 845 844 844 843 843 842 842 842 842 843 844 844 845 845 846 847 847 848 849 850 851 852 853
862 862 863 863 863 863 864 864 864 864 864 864 864 863 863 863 863 863 862 862 859 857 857 856 856 855 854 853 855 859 858 853 849 848 847 846 847 849 850 852 854 852 851 852 852 853 852 852 852 852 852 852 851 850 851 850 848 848 848 846 846 845 845 844 844 844 843 843 843 843 843 843 844 844 845 845 846 847 847 848 849 850 851 852 853
862 862 863 863 863 863 863 864 864 864 864 864 864 863 863 863 863 863 863 862 861 859 857 856 856 856 855 854 858 861 855 849 850 850 849 848 848 849 850 851 851 848 848 848 849 850 851 851 851 850 850 851 851 850 851 850 849 849 848 846 846 845 845 845 844 844 844 844 844 844 843 843 844 844 845 845 846 847 847 848 849 850 850 851 852
862 862 862 863 863 863 863 864 864 864 864 864 864 863 863 863 864 863 863 862 862 861 858 856 856 856 856 854 854 854 852 850 850 850 853 855 853 849 847 848 847 845 845 846 845 847 849 851 851 849 849 851 851 851 851 849 848 848 847 846 845 845 845 845 845 845 845 845 845 844 844 844 844 844 845 845 846 846 847 848 848 849 850 851 852
861 862 862 863 863 863 863 864 864 864 864 864 864 863 863 864 864 864 863 863 863 863 861 859 856 856 856 856 854 853 852 851 850 850 855 859 859 853 847 845 844 843 845 846 845 846 847 849 850 850 850 850 850 851 851 849 848 847 847 846 845 845 844 844 845 845 845 845 845 845 845 845 844 844 845 845 846 846 847 847 848 849 849 850 851
861 861 862 862 862 863 863 863 864 864 864 863 863 864 864 864 864 864 864 863 863 863 862 861 858 856 857 857 856 854 852 852 853 854 854 856 858 856 848 844 845 845 846 849 848 848 847 847 849 850 849 849 849 850 850 849 847 847 847 846 845 844 844 844 844 844 845 845 845 845 845 845 845 845 845 845 845 846 846 847 848 848 849 849 850
860 861 861 862 862 863 863 863 863 863 863 863 863 864 863 864 864 864 864 863 863 863 863 862 860 858 858 858 857 855 854 854 855 856 856 855 855 853 847 844 848 849 847 849 850 849 848 847 847 848 848 849 849 850 850 849 848 847 846 846 845 845 844 844 844 844 844 845 845 845 845 845 845 845 845 845 845 845 846 846 847 848 848 849 850
859 860 860 861 861 862 862 863 863 863 863 863 863 863 863 863 863 863 863 863 863 863 863 862 861 860 858 857 856 854 854 853 853 854 855 854 852 852 851 850 851 850 847 848 849 848 847 846 846 846 847 849 849 849 849 848 848 847 846 846 846 845 844 844 844 843 844 844 844 845 845 845 845 845 845 845 845 846 846 846 846 847 848 848 849
859 859 859 860 861 861 862 862 862 863 863 863 863 863 862 863 863 863 863 863 863 863 863 861 860 860 857 856 855 853 852 852 852 852 852 853 852 851 854 854 853 853 849 846 847 846 846 846 845 846 847 848 848 849 849 848 848 847 847 847 846 845 845 844 844 843 843 844 844 845 845 845 845 845 845 845 846 846 846 846 846 847 847 848 848
857 858 858 859 860 860 861 862 862 862 862 863 863 863 863 863 863 863 863 863 863 862 862 861 860 860 858 856 855 853 852 852 852 852 850 851 850 849 852 853 852 853 850 846 846 845 845 846 846 846 847 848 848 848 848 848 848 848 847 847 846 846 845 845 844 844 844 844 844 844 845 845 845 846 846 846 846 846 846 846 846 847 847 847 848
856 856 857 858 858 859 860 861 861 862 862 862 862 862 863 863 863 863 862 862 862 862 862 861 860 860 859 857 856 854 853 852 852 851 849 849 848 848 850 851 850 850 847 846 847 845 844 846 846 847 848 848 848 848 848 847 848 848 848 848 847 847 846 846 845 844 844 844 844 844 844 845 845 845 845 846 846 846 846 846 846 846 846 847 847
854 855 856 857 857 858 859 860 860 861 861 861 862 862 862 862 862 862 862 862 862 861 861 861 860 860 859 858 858 856 855 854 853 852 851 850 849 849 850 851 852 850 846 845 846 846 846 846 846 847 848 849 849 849 848 848 848 848 848 848 848 847 847 846 846 845 845 844 844 844 844 844 844 844 845 845 845 845 845 845 846 846 846 846 846
853 854 855 855 856 857 858 858 859 859 860 860 860 861 861 861 861 862 861 861 861 861 860 860 859 859 859 859 858 857 856 855 854 853 853 853 852 852 852 852 854 854 850 848 847 846 846 846 846 849 849 849 849 848 849 848 848 848 848 848 848 848 847 847 846 846 845 845 844 844 844 843 843 844 844 844 844 844 844 845 845 845 845 845 845
851 852 853 854 854 855 856 857 857 858 858 859 859 859 860 860 860 860 861 860 860 860 860 859 859 859 858 858 858 857 856 856 856 854 854 855 854 853 853 852 853 855 854 854 850 846 846 846 847 849 850 849 849 848 849 849 849 849 848 848 849 848 848 847 847 846 846 845 844 844 843 843 843 843 843 843 843 843 843 843 844 844 844 844 844
849 850 851 852 853 854 855 855 856 857 857 857 858 858 858 859 859 859 859 859 859 859 859 859 858 858 858 857 857 857 856 856 855 855 854 855 854 853 853 853 853 853 853 855 853 849 847 847 846 848 849 849 849 848 848 849 849 849 849 849 849 848 848 848 847 847 846 845 845 844 843 843 843 842 842 842 842 842 842 842 842 842 843 843 843
848 849 850 850 851 852 853 854 854 855 855 856 856 856 857 857 857 857 858 858 858 858 858 858 857 857 857 857 857 856 856 855 855 855 854 855 854 853 853 853 853 853 853 854 854 852 849 848 847 848 848 849 849 848 848 849 849 849 849 849 849 848 848 848 847 847 846 845 845 844 843 843 843 842 842 842 841 841 841 841 841 841 841 841 841
846 847 848 848 849 850 850 851 852 853 853 854 854 855 855 855 856 856 856 856 857 857 857 857 856 856 856 856 856 856 856 855 855 854 854 854 854 853 853 852 853 853 853 853 853 852 850 849 848 848 848 849 849 849 849 849 849 849 849 849 849 848 848 847 847 847 846 845 844 844 843 843 843 842 842 841 841 841 840 840 840 839 839 840 840
844 845 846 846 847 848 848 849 850 851 851 852 853 853 854 854 854 855 855 855 856 856 856 856 855 855 855 855 855 855 855 855 854 854 853 852 852 852 852 852 852 852 852 852 852 851 850 850 850 849 848 849 849 849 849 849 849 849 849 849 849 848 848 847 846 846 845 845 844 843 843 842 842 842 841 841 841 840 840 839 839 839 839 838 838
842 843 843 844 845 846 846 847 848 849 849 850 851 851 852 852 852 853 853 853 854 854 854 854 854 854 854 854 854 854 854 854 853 853 852 851 851 850 850 850 851 851 851 852 851 850 850 849 849 849 848 849 848 849 849 848 849 849 849 848 848 847 847 846 846 845 844 844 843 843 843 842 842 842 841 841 841 840 840 839 839 839 838 838 838
839 840 841 841 842 843 844 844 845 846 847 848 849 849 850 850 851 851 851 851 852 852 852 852 853 853 853 853 852 852 852 852 852 851 851 850 850 850 850 850 850 850 850 851 851 850 849 848 848 848 847 848 848 848 849 848 848 848 848 848 847 846 846 846 845 844 844 844 843 843 843 842 842 842 841 841 840 840 840 839 839 838 838 838 837
837 838 839 839 840 841 841 842 843 844 844 845 846 847 847 848 849 849 850 850 850 850 851 851 851 851 851 851 851 851 851 850 850 850 850 849 849 849 849 849 849 849 849 850 850 849 848 847 847 847 847 847 847 847 848 848 848 848 847 847 847 846 846 845 845 844 844 844 843 843 842 842 842 841 841 841 840 840 839 839 839 838 838 837 837
835 836 837 838 839 839 840 840 841 841 842 843 844 844 845 846 847 847 848 848 849 849 849 849 849 849 849 849 849 849 849 849 849 848 848 848 848 848 848 848 848 848 848 848 849 848 848 847 846 846 846 846 846 846 847 847 847 847 847 847 846 846 846 845 844 844 844 843 843 842 842 841 841 841 840 840 839 839 839 838 838 838 837 837 837
833 834 835 836 837 838 839 839 839 840 840 841 842 842 843 843 844 845 845 846 846 847 847 847 847 848 848 848 847 847 847 847 847 847 847 847 847 846 846 846 846 847 847 847 847 847 847 846 845 845 845 845 845 845 846 846 846 846 846 846 846 846 845 845 844 843 843 843 843 843 842 841 841 841 840 840 839 839 838 838 838 837 837 837 836
832 833 833 834 835 836 837 837 838 838 839 840 840 841 842 842 842 842 843 843 844 844 845 845 845 846 846 846 846 846 846 846 846 845 845 845 845 845 845 845 845 845 845 845 845 845 845 844 844 844 844 844 844 844 844 845 845 845 845 845 845 846 845 845 844 843 843 843 843 843 843 842 841 841 840 840 839 839 838 838 837 837 836 836 835
829 830 831 832 833 834 835 835 836 837 837 838 838 839 840 840 840 841 841 841 841 842 843 843 843 844 844 844 844 844 844 844 845 845 844 843 844 844 844 843 843 844 844 844 843 844 844 843 844 846 847 847 845 843 842 843 843 843 844 844 844 845 845 844 844 844 843 843 842 842 842 841 841 841 840 840 839 839 838 838 837 837 836 835 835
827 828 829 830 831 831 833 833 834 834 835 835 836 836 838 838 838 838 839 839 840 841 841 841 842 842 841 842 842 843 842 842 843 843 842 842 842 843 844 843 843 844 844 844 843 843 843 843 844 846 848 849 847 844 842 841 841 842 842 843 843 843 844 843 843 844 843 842 842 841 841 841 841 841 841 840 840 839 839 838 837 836 836 835 834
826 827 827 828 828 829 830 831 832 832 832 832 833 834 835 836 836 836 837 837 838 839 840 840 840 840 839 839 840 840 841 840 840 840 840 840 840 841 842 843 842 842 842 843 843 842 842 842 842 843 844 845 844 843 841 839 839 840 841 841 842 842 842 842 842 843 842 842 841 841 841 841 841 841 841 841 840 839 838 838 837 836 835 834 834
824 825 826 826 826 827 827 828 829 829 829 830 830 832 834 834 835 835 835 835 836 836 837 838 838 838 838 837 837 837 838 837 836 836 836 837 837 838 839 839 839 840 841 842 841 840 840 839 839 839 840 841 840 840 840 838 838 838 839 840 840 840 840 840 840 841 841 841 841 841 841 840 840 841 841 840 839 838 838 838 837 836 835 834 833
822 823 824 824 824 825 825 826 826 827 827 827 828 830 832 832 833 834 834 834 833 834 834 835 835 836 836 835 835 835 835 833 832 833 833 834 834 835 836 836 836 837 839 839 839 838 838 837 837 837 838 839 839 838 838 837 837 837 838 838 839 839 839 839 839 839 839 840 840 840 840 840 840 840 840 840 839 838 838 838 837 836 835 834 833
821 821 822 822 822 823 824 824 824 824 825 826 827 829 830 830 831 832 832 832 832 832 832 832 833 833 834 833 833 832 832 830 830 831 832 833 833 833 833 833 833 834 835 835 836 836 836 836 836 836 836 838 838 837 837 836 836 837 837 837 837 837 837 837 837 838 838 839 839 839 839 839 839 839 840 840 839 838 837 837 837 837 836 835 834
820 820 820 820 821 821 822 823 823 824 824 825 826 827 828 828 829 830 831 831 830 830 830 830 831 831 832 831 830 830 830 829 829 829 830 832 833 832 832 832 831 831 832 832 833 833 834 834 835 835 835 836 836 836 836 836 836 836 836 836 836 836 836 836 836 837 837 837 838 838 837 837 838 839 840 840 840 838 838 837 837 837 837 836 835
819 819 819 819 819 820 820 821 822 823 824 824 825 825 826 826 827 827 829 829 828 828 828 828 829 829 829 829 828 828 829 828 827 828 829 831 832 832 832 832 831 830 830 830 830 831 831 832 832 832 833 834 835 835 835 835 835 836 835 835 835 835 835 835 835 835 835 836 836 836 836 836 836 837 839 840 840 839 838 838 837 837 837 836 836
818 817 818 819 819 819 819 820 821 822 822 822 822 823 824 824 825 826 827 827 827 827 826 826 826 827 828 828 827 827 826 825 826 826 827 828 829 829 829 829 829 829 828 828 828 829 829 829 830 831 832 832 833 833 834 834 835 835 835 835 835 834 834 834 833 833 833 834 835 835 835 834 834 836 837 838 839 839 839 838 837 836 836 836 836
816 816 816 817 818 819 820 821 822 822 821 821 821 821 822 822 823 825 826 825 825 825 824 824 825 826 827 827 825 824 824 824 824 825 825 826 826 826 826 826 827 826 826 825 825 826 827 827 828 829 830 830 830 831 832 833 834 834 834 834 834 833 833 832 831 831 832 833 834 835 834 833 834 835 836 837 838 838 839 839 837 836 836 836 836
814 815 815 815 817 819 822 824 824 823 822 822 821 820 820 821 822 823 824 824 824 824 823 823 824 824 824 824 823 823 823 823 823 823 823 824 824 824 824 824 824 824 824 824 824 824 824 825 826 826 827 828 829 829 831 832 833 833 833 833 832 831 831 831 830 829 830 831 833 834 835 834 833 834 835 837 837 837 838 838 837 836 835 835 835
812 813 815 816 817 818 820 823 824 822 822 824 824 822 820 820 821 822 823 823 823 822 822 822 822 822 822 821 821 821 822 821 822 822 822 822 822 823 823 822 822 822 822 823 824 824 825 825 826 826 826 826 827 828 829 830 832 833 833 832 832 831 830 829 828 827 828 830 832 833 834 834 833 833 834 835 835 835 837 838 837 836 836 835 835